Regional Weather Roundup
Issued by NWS

Home | Current Version | Previous Version | Graphics & Text | Print | Product List | Glossary On
Versions: 1 2 3 4 5 6 7 8 9 10 11 12 13 14 15 16 17 18 19 20 21 22 23 24 25 26 27 28 29 30 31 32 33 34 35 36 37 38 39 40 41 42 43 44 45 46 47 48 49 50
910
ASUS45 KCYS 300610
RWRWY

WYOMING REGIONAL WEATHER ROUNDUP
NATIONAL WEATHER SERVICE CHEYENNE WY
1200 AM MDT FRI SEP 30 2016

NOTE:  "FAIR" INDICATES FEW OR NO CLOUDS BELOW 12,000 FEET
WITH NO SIGNIFICANT WEATHER AND/OR OBSTRUCTIONS TO VISIBILITY.

WYZ001-300700-
YELLOWSTONE NATIONAL PARK

CITY           SKY/WX    TMP DP  RH WIND       PRES   REMARKS
LK YELLOWSTONE   N/A     42  40  92 CALM      30.39S
6HR MIN TEMP:  40; 6HR MAX TEMP:  51;

W YELLOWSTONE  NOT AVBL

$$
WYZ002>013-054>058-071-098>099-300700-
NORTHERN WYOMING

CITY           SKY/WX    TMP DP  RH WIND       PRES   REMARKS
JACKSON        CLOUDY    45  45 100 CALM      30.33F
CODY           FAIR      62  42  47 SW6       30.18F
GREYBULL       LGT RAIN  61  54  77 NE12      30.12F
6HR MIN TEMP:  61; 6HR MAX TEMP:  76; 6HR PCP:  0.01;

WORLAND        FAIR      59  50  72 NE8       30.14F
6HR MIN TEMP:  59; 6HR MAX TEMP:  76; 6HR PCP: TRACE;

SHERIDAN       FAIR      62  47  57 S3        30.07F
6HR MIN TEMP:  57; 6HR MAX TEMP:  72;

BUFFALO        FAIR      69  42  37 S13       30.13F
6HR MIN TEMP:  67; 6HR MAX TEMP:  72;

GILLETTE       FAIR      63  48  58 S9        30.14S
6HR MIN TEMP:  63; 6HR MAX TEMP:  73;

HULETT         MOCLDY    70  43  37 S13       30.16S
NEWCASTLE      FAIR      64  39  39 SE14G22   30.21S

$$
WYZ014>020-022>026-101>103-300700-
CENTRAL WYOMING

CITY           SKY/WX    TMP DP  RH WIND       PRES   REMARKS
BIG PINEY      FAIR      42  39  89 N7        30.35S
6HR MIN TEMP:  41; 6HR MAX TEMP:  66; 6HR PCP: TRACE;

PINEDALE       FAIR      39  39 100 SW6       30.35S WCI  35
DUBOIS         FAIR      43  39  87 W9        30.33F
LANDER         FAIR      57  47  69 CALM      30.23F
6HR MIN TEMP:  55; 6HR MAX TEMP:  68; 6HR PCP: TRACE;

RIVERTON       CLOUDY    56  49  77 W5        30.23F
6HR MIN TEMP:  56; 6HR MAX TEMP:  69;

CASPER         FAIR      59  47  64 NE8       30.24F
6HR MIN TEMP:  57; 6HR MAX TEMP:  64; 6HR PCP: TRACE;

DOUGLAS        FAIR      52  45  77 CALM      30.24S
6HR MIN TEMP:  52; 6HR MAX TEMP:  73;


$$
WYZ021-027>030-104>119-300700-
SOUTHERN WYOMING

CITY           SKY/WX    TMP DP  RH WIND       PRES   REMARKS
EVANSTON       FAIR      52  41  66 S5        30.36R
6HR MIN TEMP:  52; 6HR MAX TEMP:  65;

FORT BRIDGER   FAIR      51  41  67 W7        30.38S
ROCK SPRINGS   FAIR      53  44  71 S5        30.33F
6HR MIN TEMP:  53; 6HR MAX TEMP:  62;

DIXON          FAIR      57  48  70 S8        30.39F
RAWLINS        FAIR      54  46  74 CALM      30.35S
6HR MIN TEMP:  53; 6HR MAX TEMP:  58;

SARATOGA       FAIR      52  43  71 W6        30.37S
LARAMIE        CLOUDY    51  44  77 CALM      30.36F
6HR MIN TEMP:  50; 6HR MAX TEMP:  63;

CHEYENNE       FAIR      55  40  56 CALM      30.29F
6HR MIN TEMP:  54; 6HR MAX TEMP:  72;

TORRINGTON     FAIR      58  42  55 E16       30.20F
6HR MIN TEMP:  54; 6HR MAX TEMP:  78;

PINE BLUFFS    FAIR      55  41  58 CALM      30.26R

$$




USA.gov is the U.S. government's official web portal to all federal, state and local government web resources and services.